TimeBST,TemperatureF,Dew PointF,Humidity,Sea Level PressureIn,VisibilityMPH,Wind Direction,Wind SpeedMPH,Gust SpeedMPH,PrecipitationIn,Events,Conditions,WindDirDegrees,DateUTC
12:20 AM,53.6,42.8,67,29.86,-9999.0,East,5.8,-,N/A,,Clear,80,2013-05-07 23:20:00
12:50 AM,55,44,58,29.85,11,East,3.5,,,,,100,2013-05-07 23:50:00
12:50 AM,55.4,44.6,67,29.86,-9999.0,East,5.8,-,N/A,,Clear,90,2013-05-07 23:50:00
1:20 AM,53.6,44.6,72,29.83,6.2,East,4.6,-,N/A,,Unknown,80,2013-05-08 00:20:00
1:50 AM,53.6,41.0,62,29.83,6.2,East,5.8,-,N/A,,Unknown,90,2013-05-08 00:50:00
2:20 AM,53.6,44.6,72,29.80,6.2,East,6.9,-,N/A,,Unknown,80,2013-05-08 01:20:00
2:50 AM,55.4,46.4,72,29.80,-9999.0,East,6.9,-,N/A,,Clear,90,2013-05-08 01:50:00
3:20 AM,55.4,46.4,72,29.77,5.0,East,6.9,-,N/A,,Unknown,100,2013-05-08 02:20:00
3:50 AM,56,47,62,29.76,5,East,3.5,,,,Light Haze,100,2013-05-08 02:50:00
3:50 AM,55.4,46.4,72,29.77,5.0,East,8.1,-,N/A,,Unknown,90,2013-05-08 02:50:00
4:20 AM,55.4,48.2,77,29.77,4.3,ESE,5.8,-,N/A,Rain,Light Rain,120,2013-05-08 03:20:00
4:50 AM,55.4,48.2,77,29.74,5.6,SE,4.6,-,N/A,Rain,Light Rain,130,2013-05-08 03:50:00
5:20 AM,55.4,46.4,72,29.74,6.2,South,6.9,-,N/A,,Scattered Clouds,170,2013-05-08 04:20:00
5:50 AM,55.4,48.2,77,29.74,5.6,SSE,5.8,-,N/A,Rain,Light Rain,160,2013-05-08 04:50:00
6:20 AM,53.6,48.2,82,29.71,4.3,SE,6.9,-,N/A,Rain,Light Rain,130,2013-05-08 05:20:00
6:50 AM,54,51,84,29.73,4,East,3.5,,,Rain,Light Rain,100,2013-05-08 05:50:00
6:50 AM,53.6,50.0,88,29.71,3.1,SSE,6.9,-,N/A,Rain,Light Rain,150,2013-05-08 05:50:00
7:20 AM,55.4,46.4,72,29.71,-9999.0,SSE,6.9,-,N/A,,Haze,150,2013-05-08 06:20:00
7:50 AM,55.4,53.6,94,29.71,2.8,SSE,8.1,-,N/A,,Haze,160,2013-05-08 06:50:00
8:20 AM,55.4,53.6,94,29.71,2.8,SSE,9.2,-,N/A,,Light Drizzle,160,2013-05-08 07:20:00
8:50 AM,57.2,55.4,94,29.71,3.7,South,9.2,-,N/A,,Mostly Cloudy,170,2013-05-08 07:50:00
9:20 AM,57.2,55.4,94,29.71,6.2,SSW,10.4,-,N/A,,Mostly Cloudy,200,2013-05-08 08:20:00
9:50 AM,59,55,82,29.71,25,East,3.5,,,Rain,Drizzle,100,2013-05-08 08:50:00
9:50 AM,57.2,53.6,88,29.71,6.2,SSW,9.2,-,N/A,,Mostly Cloudy,210,2013-05-08 08:50:00
10:20 AM,59.0,53.6,82,29.71,6.2,SW,15.0,-,N/A,,Mostly Cloudy,220,2013-05-08 09:20:00
10:50 AM,59.0,51.8,77,29.71,6.2,SW,12.7,-,N/A,,Mostly Cloudy,220,2013-05-08 09:50:00
11:20 AM,59.0,50.0,72,29.71,6.2,SW,17.3,-,N/A,,Mostly Cloudy,230,2013-05-08 10:20:00
11:50 AM,59.0,50.0,72,29.71,6.2,SW,15.0,-,N/A,,Mostly Cloudy,220,2013-05-08 10:50:00
12:20 PM,59.0,50.0,72,29.71,6.2,SW,13.8,-,N/A,,Mostly Cloudy,220,2013-05-08 11:20:00
12:50 PM,61,50,58,29.71,22,East,3.5,,,,Scattered Clouds,100,2013-05-08 11:50:00
12:50 PM,59.0,50.0,72,29.71,6.2,SW,16.1,-,N/A,,Mostly Cloudy,230,2013-05-08 11:50:00
1:20 PM,59.0,50.0,72,29.71,6.2,SSW,12.7,-,N/A,,Mostly Cloudy,210,2013-05-08 12:20:00
1:50 PM,59.0,50.0,72,29.71,6.2,SW,17.3,-,N/A,,Mostly Cloudy,230,2013-05-08 12:50:00
2:20 PM,59.0,48.2,67,29.71,6.2,SW,15.0,-,N/A,,Mostly Cloudy,230,2013-05-08 13:20:00
2:50 PM,60.8,48.2,63,29.71,6.2,WSW,17.3,-,N/A,,Scattered Clouds,240,2013-05-08 13:50:00
3:20 PM,62.6,48.2,59,29.71,6.2,SW,17.3,-,N/A,,Scattered Clouds,230,2013-05-08 14:20:00
3:50 PM,63,48,48,29.71,22,East,3.5,,,,Mostly Cloudy,100,2013-05-08 14:50:00
3:50 PM,62.6,48.2,59,29.71,6.2,SW,16.1,-,N/A,,Mostly Cloudy,230,2013-05-08 14:50:00
4:20 PM,64.4,48.2,56,29.71,6.2,SW,16.1,-,N/A,,Scattered Clouds,220,2013-05-08 15:20:00
4:50 PM,62.6,48.2,59,29.71,6.2,SW,18.4,-,N/A,,Mostly Cloudy,230,2013-05-08 15:50:00
5:20 PM,60.8,48.2,63,29.71,6.2,SW,16.1,-,N/A,,Mostly Cloudy,230,2013-05-08 16:20:00
5:50 PM,59.0,50.0,72,29.71,6.2,SW,16.1,-,N/A,,Mostly Cloudy,220,2013-05-08 16:50:00
6:20 PM,59.0,50.0,72,29.71,6.2,SW,16.1,-,N/A,,Mostly Cloudy,220,2013-05-08 17:20:00
6:50 PM,58,51,70,29.71,28,East,3.5,,,,Mostly Cloudy,100,2013-05-08 17:50:00
6:50 PM,59.0,51.8,77,29.71,6.2,SW,13.8,-,N/A,,Mostly Cloudy,220,2013-05-08 17:50:00
7:20 PM,57.2,51.8,82,29.71,6.2,SW,15.0,-,N/A,Rain,Light Rain Showers,220,2013-05-08 18:20:00
7:50 PM,57.2,51.8,82,29.71,6.2,SW,13.8,-,N/A,,Mostly Cloudy,220,2013-05-08 18:50:00
8:20 PM,57.2,51.8,82,29.74,6.2,SW,15.0,-,N/A,Rain,Light Rain,230,2013-05-08 19:20:00
8:50 PM,55.4,48.2,77,29.74,6.2,West,18.4,-,N/A,,Mostly Cloudy,270,2013-05-08 19:50:00
9:20 PM,53.6,46.4,77,29.77,6.2,West,12.7,-,N/A,,Scattered Clouds,270,2013-05-08 20:20:00
9:50 PM,53,45,67,29.79,19,East,3.5,,,,Scattered Clouds,100,2013-05-08 20:50:00
9:50 PM,53.6,44.6,72,29.77,6.2,West,13.8,-,N/A,,Partly Cloudy,270,2013-05-08 20:50:00
10:20 PM,51.8,44.6,76,29.80,-9999.0,West,13.8,-,N/A,,Clear,270,2013-05-08 21:20:00
10:50 PM,50.0,44.6,82,29.80,-9999.0,West,13.8,-,N/A,,Clear,280,2013-05-08 21:50:00
11:20 PM,50.0,42.8,76,29.80,-9999.0,West,8.1,-,N/A,,Clear,280,2013-05-08 22:20:00
11:50 PM,50.0,42.8,76,29.83,6.2,WSW,6.9,-,N/A,,Partly Cloudy,250,2013-05-08 22:50:00